Time,TemperatureF,DewpointF,PressureIn,WindDirection,WindDirectionDegrees,WindSpeedMPH,WindSpeedGustMPH,Humidity,HourlyPrecipIn,Conditions,Clouds,dailyrainin,SoftwareType,DateUTC
2013-02-18 00:00:00,12.3,1.9,27.36,NE,56,3.1,8.3,62,0.00,--,--,0.00,awk and wget,2013-02-18 05:00:00,
2013-02-18 00:10:00,11.9,2.4,27.36,NNW,344,2.0,8.7,64,0.00,--,--,0.00,awk and wget,2013-02-18 05:10:00,
2013-02-18 00:15:00,10.7,1.7,27.36,East,87,2.1,8.9,66,0.00,--,--,0.00,awk and wget,2013-02-18 05:15:00,
2013-02-18 00:20:00,10.1,2.2,27.36,East,80,1.3,8.9,69,0.00,--,--,0.00,awk and wget,2013-02-18 05:20:00,
2013-02-18 00:30:00,9.9,2.9,27.36,NNW,344,4.1,8.0,72,0.00,--,--,0.00,awk and wget,2013-02-18 05:30:00,
2013-02-18 00:40:00,11.3,3.3,27.36,NNW,343,1.6,16.6,69,0.00,--,--,0.00,awk and wget,2013-02-18 05:40:00,
2013-02-18 00:50:00,11.0,2.9,27.36,SE,134,1.5,10.8,69,0.00,--,--,0.00,awk and wget,2013-02-18 05:50:00,
2013-02-18 01:00:00,10.6,3.2,27.36,North,356,2.1,8.0,71,0.00,--,--,0.00,awk and wget,2013-02-18 06:00:00,
2013-02-18 01:10:00,9.3,2.4,27.37,NNW,342,1.9,6.6,73,0.00,--,--,0.00,awk and wget,2013-02-18 06:10:00,
2013-02-18 01:20:00,8.8,2.4,27.37,NNW,342,2.6,10.9,74,0.00,--,--,0.00,awk and wget,2013-02-18 06:20:00,
2013-02-18 01:30:00,10.5,2.8,27.37,NNW,345,0.7,10.9,70,0.00,--,--,0.00,awk and wget,2013-02-18 06:30:00,
2013-02-18 01:40:00,11.4,3.2,27.37,NNW,341,8.5,13.7,68,0.00,--,--,0.00,awk and wget,2013-02-18 06:40:00,
2013-02-18 01:50:00,12.0,2.7,27.37,NNW,345,2.6,13.7,65,0.00,--,--,0.00,awk and wget,2013-02-18 06:50:00,
2013-02-18 01:55:00,10.7,2.4,27.37,NNW,342,2.8,10.7,68,0.00,--,--,0.00,awk and wget,2013-02-18 06:55:00,
2013-02-18 02:00:00,10.0,2.2,27.37,NNW,345,0.7,10.7,70,0.00,--,--,0.00,awk and wget,2013-02-18 07:00:00,
2013-02-18 02:10:00,10.4,2.4,27.37,NNW,346,3.1,8.6,69,0.00,--,--,0.00,awk and wget,2013-02-18 07:10:00,
2013-02-18 02:15:00,9.7,2.0,27.37,NNW,340,0.9,10.7,70,0.00,--,--,0.00,awk and wget,2013-02-18 07:15:00,
2013-02-18 02:20:00,10.1,2.3,27.37,North,357,3.1,10.7,70,0.00,--,--,0.00,awk and wget,2013-02-18 07:20:00,
2013-02-18 02:30:00,10.7,3.7,27.37,NNW,339,8.1,9.4,72,0.00,--,--,0.00,awk and wget,2013-02-18 07:30:00,
2013-02-18 02:40:00,9.9,2.0,27.37,NNW,346,5.1,12.5,69,0.00,--,--,0.00,awk and wget,2013-02-18 07:40:00,
2013-02-18 02:45:00,8.9,2.1,27.37,NNW,345,4.6,13.7,73,0.00,--,--,0.00,awk and wget,2013-02-18 07:45:00,
2013-02-18 02:50:00,8.3,2.2,27.37,North,3,2.0,13.7,75,0.00,--,--,0.00,awk and wget,2013-02-18 07:50:00,
2013-02-18 02:55:00,8.4,2.2,27.37,NE,55,2.6,13.7,75,0.00,--,--,0.00,awk and wget,2013-02-18 07:55:00,
2013-02-18 03:00:00,8.0,2.0,27.38,North,350,3.7,11.5,76,0.00,--,--,0.00,awk and wget,2013-02-18 08:00:00,
2013-02-18 03:05:00,7.8,2.1,27.38,ENE,65,4.3,11.5,77,0.00,--,--,0.00,awk and wget,2013-02-18 08:05:00,
2013-02-18 03:10:00,7.8,2.2,27.38,NNW,345,2.8,11.0,77,0.00,--,--,0.00,awk and wget,2013-02-18 08:10:00,
2013-02-18 03:20:00,7.7,2.0,27.38,East,97,4.0,9.0,76,0.00,--,--,0.00,awk and wget,2013-02-18 08:20:00,
2013-02-18 03:30:00,6.9,1.5,27.38,NE,47,4.2,12.0,78,0.00,--,--,0.00,awk and wget,2013-02-18 08:30:00,
2013-02-18 03:40:00,9.3,2.6,27.38,NNW,341,5.0,12.3,73,0.00,--,--,0.00,awk and wget,2013-02-18 08:40:00,
2013-02-18 03:50:00,8.1,1.8,27.39,NE,50,5.4,8.5,74,0.00,--,--,0.00,awk and wget,2013-02-18 08:50:00,
2013-02-18 04:00:00,7.0,1.1,27.39,ENE,68,3.2,9.4,76,0.00,--,--,0.00,awk and wget,2013-02-18 09:00:00,
2013-02-18 04:10:00,6.5,1.2,27.39,ENE,75,5.7,9.4,78,0.00,--,--,0.00,awk and wget,2013-02-18 09:10:00,
2013-02-18 04:20:00,6.2,1.3,27.39,NE,46,4.3,7.6,79,0.00,--,--,0.00,awk and wget,2013-02-18 09:20:00,
2013-02-18 04:30:00,5.3,0.8,27.39,ENE,68,4.5,7.7,81,0.00,--,--,0.00,awk and wget,2013-02-18 09:30:00,
2013-02-18 04:40:00,5.3,1.2,27.40,ENE,65,4.5,8.8,82,0.00,--,--,0.00,awk and wget,2013-02-18 09:40:00,
2013-02-18 04:45:00,4.9,0.9,27.40,ESE,102,1.8,8.8,82,0.00,--,--,0.00,awk and wget,2013-02-18 09:45:00,
2013-02-18 04:50:00,4.6,0.5,27.40,ESE,116,1.1,8.3,82,0.00,--,--,0.00,awk and wget,2013-02-18 09:50:00,
2013-02-18 05:00:00,4.3,0.4,27.40,ENE,69,2.6,6.7,83,0.00,--,--,0.00,awk and wget,2013-02-18 10:00:00,
2013-02-18 05:10:00,4.3,0.4,27.40,ENE,59,1.6,6.4,83,0.00,--,--,0.00,awk and wget,2013-02-18 10:10:00,
2013-02-18 05:20:00,3.8,0.1,27.41,ENE,57,0.2,6.4,83,0.00,--,--,0.00,awk and wget,2013-02-18 10:20:00,
2013-02-18 05:30:00,3.3,-0.3,27.42,SE,130,2.4,6.4,84,0.00,--,--,0.00,awk and wget,2013-02-18 10:30:00,
2013-02-18 05:40:00,3.2,-0.1,27.42,NNW,347,0.8,5.2,85,0.00,--,--,0.00,awk and wget,2013-02-18 10:40:00,
2013-02-18 05:45:00,3.1,-0.2,27.42,ESE,115,0.4,5.2,85,0.00,--,--,0.00,awk and wget,2013-02-18 10:45:00,
2013-02-18 05:50:00,3.1,-0.1,27.43,NNW,346,0.5,5.2,86,0.00,--,--,0.00,awk and wget,2013-02-18 10:50:00,
2013-02-18 06:00:00,3.0,-0.1,27.43,NNW,346,0.0,5.3,86,0.00,--,--,0.00,awk and wget,2013-02-18 11:00:00,
2013-02-18 06:10:00,3.0,-0.1,27.43,NNW,346,0.0,5.3,86,0.00,--,--,0.00,awk and wget,2013-02-18 11:10:00,
2013-02-18 06:20:00,2.8,-0.4,27.43,NE,45,2.0,6.0,86,0.00,--,--,0.00,awk and wget,2013-02-18 11:20:00,
2013-02-18 06:25:00,2.5,-0.6,27.44,East,88,1.5,6.0,86,0.00,--,--,0.00,awk and wget,2013-02-18 11:25:00,
2013-02-18 06:30:00,2.5,-0.6,27.44,NNE,33,3.5,5.7,86,0.00,--,--,0.00,awk and wget,2013-02-18 11:30:00,
2013-02-18 06:40:00,2.4,-0.6,27.44,NNE,30,2.2,6.6,86,0.00,--,--,0.00,awk and wget,2013-02-18 11:40:00,
2013-02-18 06:50:00,2.2,-0.9,27.44,NE,49,1.0,6.6,86,0.00,--,--,0.00,awk and wget,2013-02-18 11:50:00,
2013-02-18 07:00:00,2.2,-0.9,27.45,NE,56,1.7,6.6,86,0.00,--,--,0.00,awk and wget,2013-02-18 12:00:00,
2013-02-18 07:10:00,1.9,-1.3,27.45,NNW,346,3.3,7.2,86,0.00,--,--,0.00,awk and wget,2013-02-18 12:10:00,
2013-02-18 07:20:00,1.7,-1.5,27.45,ENE,75,0.4,7.1,85,0.00,--,--,0.00,awk and wget,2013-02-18 12:20:00,
2013-02-18 07:25:00,1.9,-1.3,27.45,ENE,64,2.8,6.6,85,0.00,--,--,0.00,awk and wget,2013-02-18 12:25:00,
2013-02-18 07:31:00,2.4,-0.9,27.45,NE,50,1.5,6.6,85,0.00,--,--,0.00,awk and wget,2013-02-18 12:31:00,
2013-02-18 07:40:00,3.7,-0.1,27.45,NNW,347,0.5,7.5,83,0.00,--,--,0.00,awk and wget,2013-02-18 12:40:00,
2013-02-18 07:51:00,5.1,0.8,27.46,NNW,341,0.0,5.0,81,0.00,--,--,0.00,awk and wget,2013-02-18 12:51:00,
2013-02-18 08:00:00,5.5,0.9,27.46,NNW,340,0.7,4.4,80,0.00,--,--,0.00,awk and wget,2013-02-18 13:00:00,
2013-02-18 08:10:00,7.2,1.6,27.46,NNW,346,0.1,5.4,77,0.00,--,--,0.00,awk and wget,2013-02-18 13:10:00,
2013-02-18 08:20:00,9.1,2.3,27.47,NNW,346,0.0,5.3,73,0.00,--,--,0.00,awk and wget,2013-02-18 13:20:00,
2013-02-18 08:30:00,11.0,3.0,27.47,NNW,346,0.2,4.4,69,0.00,--,--,0.00,awk and wget,2013-02-18 13:30:00,
2013-02-18 08:40:00,11.9,2.8,27.47,NNW,342,0.1,3.5,66,0.00,--,--,0.00,awk and wget,2013-02-18 13:40:00,
2013-02-18 08:45:00,13.0,3.7,27.47,NNW,342,0.0,4.0,65,0.00,--,--,0.00,awk and wget,2013-02-18 13:45:00,
2013-02-18 08:50:00,13.6,3.3,27.47,NNW,340,2.8,4.5,62,0.00,--,--,0.00,awk and wget,2013-02-18 13:50:00,
2013-02-18 08:55:00,14.8,3.4,27.47,NNW,340,3.1,4.7,59,0.00,--,--,0.00,awk and wget,2013-02-18 13:55:00,
2013-02-18 09:00:00,15.8,2.9,27.47,NNW,339,1.0,4.7,56,0.00,--,--,0.00,awk and wget,2013-02-18 14:00:00,
2013-02-18 09:10:00,16.9,3.2,27.47,NNW,343,0.9,5.6,54,0.00,--,--,0.00,awk and wget,2013-02-18 14:10:00,
2013-02-18 09:20:00,18.6,2.9,27.47,NNW,340,2.1,6.3,49,0.00,--,--,0.00,awk and wget,2013-02-18 14:20:00,
2013-02-18 09:30:00,17.6,4.0,27.47,NNW,337,4.0,8.6,54,0.00,--,--,0.00,awk and wget,2013-02-18 14:30:00,
2013-02-18 09:40:00,19.7,4.3,27.47,NNW,339,1.6,8.6,50,0.00,--,--,0.00,awk and wget,2013-02-18 14:40:00,
2013-02-18 09:45:00,20.7,3.4,27.47,NNW,338,2.4,7.8,46,0.00,--,--,0.00,awk and wget,2013-02-18 14:45:00,
2013-02-18 09:50:00,21.0,3.3,27.47,NNW,339,2.1,7.4,45,0.00,--,--,0.00,awk and wget,2013-02-18 14:50:00,
2013-02-18 10:00:00,22.0,2.9,27.47,NNW,341,2.0,23.5,43,0.00,--,--,0.00,awk and wget,2013-02-18 15:00:00,
2013-02-18 10:10:00,23.0,2.8,27.46,NNW,337,1.6,6.9,40,0.00,--,--,0.00,awk and wget,2013-02-18 15:10:00,
2013-02-18 10:20:00,24.4,3.8,27.46,NNW,337,3.8,7.7,40,0.00,--,--,0.00,awk and wget,2013-02-18 15:20:00,
2013-02-18 10:25:00,24.7,4.2,27.46,NNW,340,4.9,7.7,40,0.00,--,--,0.00,awk and wget,2013-02-18 15:25:00,
2013-02-18 10:30:00,25.0,4.0,27.46,NNW,334,1.1,8.6,39,0.00,--,--,0.00,awk and wget,2013-02-18 15:30:00,
2013-02-18 10:40:00,26.1,5.0,27.46,NNW,339,4.4,8.6,39,0.00,--,--,0.00,awk and wget,2013-02-18 15:40:00,
2013-02-18 10:51:00,26.4,6.6,27.46,NNW,335,4.7,7.7,42,0.00,--,--,0.00,awk and wget,2013-02-18 15:51:00,
2013-02-18 11:01:00,27.2,5.6,27.45,NNW,339,3.2,23.7,39,0.00,--,--,0.00,awk and wget,2013-02-18 16:01:00,
2013-02-18 11:11:00,29.5,7.4,27.45,NNW,337,1.5,23.7,38,0.00,--,--,0.00,awk and wget,2013-02-18 16:11:00,
2013-02-18 11:20:00,30.4,6.8,27.45,NNW,335,2.7,9.8,36,0.00,--,--,0.00,awk and wget,2013-02-18 16:20:00,
2013-02-18 11:30:00,31.0,7.9,27.44,NNW,334,2.8,11.6,37,0.00,--,--,0.00,awk and wget,2013-02-18 16:30:00,
2013-02-18 11:40:00,33.1,10.9,27.44,NNW,332,8.7,11.6,38,0.00,--,--,0.00,awk and wget,2013-02-18 16:40:00,
2013-02-18 11:50:00,33.1,9.7,27.44,NNW,336,5.7,12.1,37,0.00,--,--,0.00,awk and wget,2013-02-18 16:50:00,
2013-02-18 12:00:00,33.1,10.0,27.43,NNW,335,7.8,12.4,37,0.00,--,--,0.00,awk and wget,2013-02-18 17:00:00,
2013-02-18 12:10:00,34.9,12.0,27.43,NNW,332,9.4,12.4,38,0.00,--,--,0.00,awk and wget,2013-02-18 17:10:00,
2013-02-18 12:20:00,35.4,12.9,27.43,NNW,332,4.5,12.1,38,0.00,--,--,0.00,awk and wget,2013-02-18 17:20:00,
2013-02-18 12:30:00,35.5,11.7,27.42,NNW,331,6.2,13.7,36,0.00,--,--,0.00,awk and wget,2013-02-18 17:30:00,
2013-02-18 12:40:00,36.4,12.3,27.42,NNW,332,5.3,24.5,36,0.00,--,--,0.00,awk and wget,2013-02-18 17:40:00,
2013-02-18 12:50:00,38.0,14.0,27.41,NNW,332,11.9,14.5,36,0.00,--,--,0.00,awk and wget,2013-02-18 17:50:00,
2013-02-18 13:00:00,38.2,13.4,27.41,NNW,333,5.1,14.5,35,0.00,--,--,0.00,awk and wget,2013-02-18 18:00:00,
2013-02-18 13:06:00,38.2,13.9,27.41,NNW,330,11.7,14.3,36,0.00,--,--,0.00,awk and wget,2013-02-18 18:06:00,
2013-02-18 13:15:00,38.7,14.1,27.40,NNW,332,5.3,15.9,36,0.00,--,--,0.00,awk and wget,2013-02-18 18:15:00,
2013-02-18 13:20:00,39.5,14.7,27.40,NNW,331,7.4,15.9,35,0.00,--,--,0.00,awk and wget,2013-02-18 18:20:00,
2013-02-18 13:30:00,40.2,15.1,27.40,NNW,330,9.1,15.2,35,0.00,--,--,0.00,awk and wget,2013-02-18 18:30:00,
2013-02-18 13:41:00,40.4,15.9,27.39,NNW,335,7.6,16.4,36,0.00,--,--,0.00,awk and wget,2013-02-18 18:41:00,
2013-02-18 13:50:00,40.4,15.2,27.39,NNW,332,2.8,17.0,35,0.00,--,--,0.00,awk and wget,2013-02-18 18:50:00,
2013-02-18 14:00:00,41.4,15.9,27.38,NNW,330,9.9,17.0,35,0.00,--,--,0.00,awk and wget,2013-02-18 19:00:00,
2013-02-18 14:10:00,41.9,15.7,27.38,NNW,334,10.7,13.7,34,0.00,--,--,0.00,awk and wget,2013-02-18 19:10:00,
2013-02-18 14:15:00,42.2,15.6,27.38,NNW,329,10.8,15.0,33,0.00,--,--,0.00,awk and wget,2013-02-18 19:15:00,
2013-02-18 14:20:00,41.7,15.2,27.38,NNW,334,10.5,15.0,33,0.00,--,--,0.00,awk and wget,2013-02-18 19:20:00,
2013-02-18 14:30:00,42.8,15.9,27.37,NNW,331,5.6,13.2,33,0.00,--,--,0.00,awk and wget,2013-02-18 19:30:00,
2013-02-18 14:40:00,43.1,16.5,27.37,NNW,332,8.3,28.5,33,0.00,--,--,0.00,awk and wget,2013-02-18 19:40:00,
2013-02-18 14:50:00,43.3,17.4,27.37,NNW,333,4.7,28.5,34,0.00,--,--,0.00,awk and wget,2013-02-18 19:50:00,
2013-02-18 15:00:00,44.7,19.1,27.36,NNW,331,13.3,14.4,35,0.00,--,--,0.00,awk and wget,2013-02-18 20:00:00,
2013-02-18 15:10:00,44.8,18.1,27.36,NNW,332,5.4,18.7,34,0.00,--,--,0.00,awk and wget,2013-02-18 20:10:00,
2013-02-18 15:15:00,44.3,18.2,27.36,NNW,331,11.2,18.7,34,0.00,--,--,0.00,awk and wget,2013-02-18 20:15:00,
2013-02-18 15:20:00,44.0,18.5,27.36,NNW,331,6.2,18.7,35,0.00,--,--,0.00,awk and wget,2013-02-18 20:20:00,
2013-02-18 15:30:00,45.1,18.8,27.36,NNW,332,5.5,15.7,34,0.00,--,--,0.00,awk and wget,2013-02-18 20:30:00,
2013-02-18 15:40:00,44.8,19.0,27.36,NNW,333,3.5,15.4,35,0.00,--,--,0.00,awk and wget,2013-02-18 20:40:00,
2013-02-18 15:50:00,45.4,18.5,27.36,NNW,329,13.8,13.8,33,0.00,--,--,0.00,awk and wget,2013-02-18 20:50:00,
2013-02-18 16:00:00,45.2,18.5,27.36,NNW,329,9.9,14.2,33,0.00,--,--,0.00,awk and wget,2013-02-18 21:00:00,
2013-02-18 16:12:00,45.7,19.2,27.36,NNW,329,11.2,14.2,34,0.00,--,--,0.00,awk and wget,2013-02-18 21:12:00,
2013-02-18 16:20:00,45.4,19.4,27.36,NNW,329,15.1,15.1,35,0.00,--,--,0.00,awk and wget,2013-02-18 21:20:00,
2013-02-18 16:30:00,44.8,19.4,27.36,NNW,329,8.7,15.3,35,0.00,--,--,0.00,awk and wget,2013-02-18 21:30:00,
2013-02-18 16:40:00,44.3,20.6,27.36,NNW,328,12.9,15.6,38,0.00,--,--,0.00,awk and wget,2013-02-18 21:40:00,
2013-02-18 16:50:00,44.0,20.9,27.36,NNW,331,10.5,15.6,39,0.00,--,--,0.00,awk and wget,2013-02-18 21:50:00,
2013-02-18 17:00:00,43.6,21.9,27.36,NNW,329,13.4,19.5,41,0.00,--,--,0.00,awk and wget,2013-02-18 22:00:00,
2013-02-18 17:10:00,43.1,22.5,27.35,NNW,331,7.4,19.5,43,0.00,--,--,0.00,awk and wget,2013-02-18 22:10:00,
2013-02-18 17:20:00,42.3,22.5,27.35,NNW,329,9.3,15.2,45,0.00,--,--,0.00,awk and wget,2013-02-18 22:20:00,
2013-02-18 17:30:00,42.0,22.6,27.36,NNW,334,4.7,11.3,45,0.00,--,--,0.00,awk and wget,2013-02-18 22:30:00,
2013-02-18 17:40:00,41.9,22.4,27.36,NNW,332,6.6,10.9,45,0.00,--,--,0.00,awk and wget,2013-02-18 22:40:00,
2013-02-18 17:50:00,41.5,22.2,27.36,NNW,333,3.2,11.2,45,0.00,--,--,0.00,awk and wget,2013-02-18 22:50:00,
2013-02-18 18:00:00,41.0,23.0,27.36,NNW,332,4.7,10.5,48,0.00,--,--,0.00,awk and wget,2013-02-18 23:00:00,
2013-02-18 18:10:00,38.7,22.5,27.36,NNW,335,4.6,10.8,51,0.00,--,--,0.00,awk and wget,2013-02-18 23:10:00,
2013-02-18 18:21:00,36.9,23.2,27.36,SE,146,6.7,10.8,57,0.00,--,--,0.00,awk and wget,2013-02-18 23:21:00,
2013-02-18 18:30:00,35.7,22.7,27.36,NNW,335,5.6,9.7,58,0.00,--,--,0.00,awk and wget,2013-02-18 23:30:00,
2013-02-18 18:40:00,33.5,23.5,27.36,East,90,4.7,9.7,66,0.00,--,--,0.00,awk and wget,2013-02-18 23:40:00,
2013-02-18 18:50:00,32.4,22.8,27.36,NNW,331,4.9,5.1,67,0.00,--,--,0.00,awk and wget,2013-02-18 23:50:00,
2013-02-18 19:00:00,32.2,23.2,27.36,NNW,334,1.6,5.7,69,0.00,--,--,0.00,awk and wget,2013-02-19 00:00:00,
2013-02-18 19:05:00,31.3,22.8,27.36,NNW,337,3.4,5.7,70,0.00,--,--,0.00,awk and wget,2013-02-19 00:05:00,
2013-02-18 19:10:00,30.9,22.6,27.36,NNW,334,2.7,5.7,71,0.00,--,--,0.00,awk and wget,2013-02-19 00:10:00,
2013-02-18 19:15:00,30.5,22.4,27.36,NNW,334,2.5,5.7,71,0.00,--,--,0.00,awk and wget,2013-02-19 00:15:00,
2013-02-18 19:20:00,29.8,22.4,27.35,NNW,333,1.8,4.9,73,0.00,--,--,0.00,awk and wget,2013-02-19 00:20:00,
2013-02-18 19:25:00,29.7,22.5,27.35,NNW,338,3.4,4.9,74,0.00,--,--,0.00,awk and wget,2013-02-19 00:25:00,
2013-02-18 19:30:00,28.9,22.0,27.35,NNW,332,4.4,5.1,74,0.00,--,--,0.00,awk and wget,2013-02-19 00:30:00,
2013-02-18 19:40:00,28.5,22.9,27.35,NNW,334,2.6,6.3,79,0.00,--,--,0.00,awk and wget,2013-02-19 00:40:00,
2013-02-18 19:51:00,28.3,22.5,27.35,NNW,335,1.4,7.2,78,0.00,--,--,0.00,awk and wget,2013-02-19 00:51:00,
2013-02-18 20:01:00,27.6,21.9,27.35,NNW,339,1.1,5.0,78,0.00,--,--,0.00,awk and wget,2013-02-19 01:01:00,
2013-02-18 20:10:00,27.2,22.2,27.35,NNW,337,1.0,4.9,80,0.00,--,--,0.00,awk and wget,2013-02-19 01:10:00,
2013-02-18 20:22:00,26.7,22.0,27.34,NNW,333,1.4,4.5,81,0.00,--,--,0.00,awk and wget,2013-02-19 01:22:00,
2013-02-18 20:30:00,26.7,21.9,27.34,NNW,334,0.4,4.4,81,0.00,--,--,0.00,awk and wget,2013-02-19 01:30:00,
2013-02-18 20:40:00,25.8,21.2,27.34,NNW,340,4.3,4.3,82,0.00,--,--,0.00,awk and wget,2013-02-19 01:40:00,
2013-02-18 20:45:00,25.5,21.0,27.34,NNW,335,4.4,4.4,82,0.00,--,--,0.00,awk and wget,2013-02-19 01:45:00,
2013-02-18 20:50:00,24.9,20.6,27.34,NNW,336,3.1,3.8,83,0.00,--,--,0.00,awk and wget,2013-02-19 01:50:00,
2013-02-18 20:55:00,25.5,21.5,27.34,NNW,336,3.7,4.2,84,0.00,--,--,0.00,awk and wget,2013-02-19 01:55:00,
2013-02-18 21:00:00,25.2,21.2,27.34,NNW,337,2.0,4.7,84,0.00,--,--,0.00,awk and wget,2013-02-19 02:00:00,
2013-02-18 21:10:00,25.5,21.4,27.34,NNW,339,1.9,4.9,84,0.00,--,--,0.00,awk and wget,2013-02-19 02:10:00,
2013-02-18 21:21:00,25.0,21.1,27.34,NNW,338,2.7,4.9,84,0.00,--,--,0.00,awk and wget,2013-02-19 02:21:00,
2013-02-18 21:31:00,24.8,21.3,27.34,NNW,339,3.2,4.5,86,0.00,--,--,0.00,awk and wget,2013-02-19 02:31:00,
2013-02-18 21:40:00,24.2,21.0,27.33,NNW,338,3.4,5.2,87,0.00,--,--,0.00,awk and wget,2013-02-19 02:40:00,
2013-02-18 21:50:00,23.7,20.5,27.33,NNW,340,3.7,6.8,87,0.00,--,--,0.00,awk and wget,2013-02-19 02:50:00,
2013-02-18 21:55:00,23.8,20.8,27.33,NNW,339,2.6,6.8,87,0.00,--,--,0.00,awk and wget,2013-02-19 02:55:00,
2013-02-18 22:00:00,24.0,21.1,27.33,NNW,337,1.9,7.3,88,0.00,--,--,0.00,awk and wget,2013-02-19 03:00:00,
2013-02-18 22:05:00,23.9,21.0,27.33,NNW,340,2.6,7.3,88,0.00,--,--,0.00,awk and wget,2013-02-19 03:05:00,
2013-02-18 22:11:00,23.8,20.9,27.33,NNW,339,2.3,7.4,88,0.00,--,--,0.00,awk and wget,2013-02-19 03:11:00,
2013-02-18 22:20:00,23.8,21.2,27.33,NNW,339,1.9,7.4,89,0.00,--,--,0.00,awk and wget,2013-02-19 03:20:00,
2013-02-18 22:30:00,24.4,21.6,27.32,NNW,341,3.2,6.5,88,0.00,--,--,0.00,awk and wget,2013-02-19 03:30:00,
2013-02-18 22:40:00,24.3,21.4,27.33,NNW,338,2.4,5.7,88,0.00,--,--,0.00,awk and wget,2013-02-19 03:40:00,
2013-02-18 22:45:00,23.9,20.9,27.32,NNW,341,2.9,7.4,88,0.00,--,--,0.00,awk and wget,2013-02-19 03:45:00,
2013-02-18 22:50:00,23.8,20.9,27.32,NNW,338,4.8,7.4,88,0.00,--,--,0.00,awk and wget,2013-02-19 03:50:00,
2013-02-18 23:00:00,24.5,21.8,27.32,NNW,339,3.9,10.0,89,0.00,--,--,0.00,awk and wget,2013-02-19 04:00:00,
2013-02-18 23:10:00,24.5,21.5,27.31,NNW,338,4.2,11.3,88,0.00,--,--,0.00,awk and wget,2013-02-19 04:10:00,
2013-02-18 23:20:00,23.4,20.4,27.30,NNW,338,3.2,11.3,87,0.00,--,--,0.00,awk and wget,2013-02-19 04:20:00,
2013-02-18 23:25:00,23.4,20.7,27.30,NNW,338,8.3,10.8,89,0.00,--,--,0.00,awk and wget,2013-02-19 04:25:00,
2013-02-18 23:30:00,23.6,20.9,27.29,NNW,337,9.5,10.1,89,0.00,--,--,0.00,awk and wget,2013-02-19 04:30:00,
2013-02-18 23:35:00,23.3,20.7,27.29,NNW,337,8.8,10.2,89,0.00,--,--,0.00,awk and wget,2013-02-19 04:35:00,
2013-02-18 23:40:00,23.2,20.7,27.29,NNW,337,6.5,10.2,90,0.00,--,--,0.00,awk and wget,2013-02-19 04:40:00,
2013-02-18 23:45:00,22.5,20.0,27.29,NNW,339,5.6,10.8,89,0.00,--,--,0.00,awk and wget,2013-02-19 04:45:00,
2013-02-18 23:50:00,23.1,20.8,27.29,NNW,338,6.5,13.2,90,0.00,--,--,0.00,awk and wget,2013-02-19 04:50:00,